Voltar ao catálogo

OPTUS B1 R/B

STAR 63F

AtivoGTO
NORAD 22089·ROCKET BODY·🇦🇺 Australia

Lançado Aug 13, 1992 de Xichang Satellite Launch Center

Loading…

TLE

EnvelhecendoSource: Space-Track

Época: Sep 14, 2026, 10:34 UTC

1 22089U 92054C   26257.44032425  .00000346  00000-0  13778-2 0  9998
2 22089  22.7427 177.4640 7241327  33.6721 355.9795  2.24622913274966

Acompanhe OPTUS B1 R/B em tempo real com AllMySat

Download on the App Store